285  
ASUS44 KEWX 250510  
RWRTX  
SOUTH TEXAS REGIONAL WEATHER ROUNDUP  
NATIONAL WEATHER SERVICE AUSTIN/SAN ANTONIO TX  
1200 AM CDT FRI APR 25 2014  
 
NOTE: "FAIR" INDICATED FEW OR NO CLOUDS BELOW 12,000 FEET WITH NO  
SIGNIFICANT WEATHER AND/OR S TO VISIBILITY
.  
 
* - THESE STATIONS ARE NOT NWS OR FAA STATIONS...AND ARE NOT SUBJECT  
TO NWS AND FAA QUALITY CONTROL.
 
 
TXZ171-172-183>190-250600-  
TEXAS HILL COUNTRY AND EDWARDS PLATEAU  
 
CITY SKY/WX TMP DP RH WIND PRES REMARKS
 
JUNCTION CLEAR 59 36 42 S3 29.97R  
*LLANO CLEAR 61 43 51 CALM 29.99R  
BURNET CLEAR 68 38 33 N5 29.98R  
*HORSESHOE BAY CLEAR 60 40 47 S3 29.95S  
*KERRVILLE CLEAR 61 41 47 CALM 29.97F  
*FREDERICKSBRG CLEAR 57 44 60 CALM 29.98S  
*ROCKSPRINGS CLEAR 68 32 26 E6 30.00S  
*BOERNE STAGE CLEAR 63 55 77 CALM 29.96S  
*CASTROVILLE CLEAR 74 61 64 SE3 29.94S  
HONDO CLEAR 73 62 68 NE7 29.94R  
*UVALDE CLEAR 75 64 68 NE6 29.93S  
DEL RIO CLOUDY 78 24 13 NE10 29.90R  
LAUGHLIN AFB CLEAR 70 29 21 E7 29.91S  
CARRIZO SPRGS CLEAR 73 61 64 E6 29.89R  

 
 
TXZ173-191>194-202-209-217>225-228-250600-  
CENTRAL AND SOUTH CENTRAL TEXAS  
 
CITY SKY/WX TMP DP RH WIND PRES REMARKS
 
GEORGETOWN CLEAR 61 45 55 CALM 29.95S  
AUSTIN/BERGSTM CLEAR 65 53 65 CALM 29.92R  
AUSTIN/MABRY CLEAR 72 44 36 N6 29.94R  
*AUSTIN/EXEC CLOUDY 68 46 45 NE7 29.94S  
*LAGO VISTA CLEAR 71 37 29 NE9 29.96S  
SAN MARCOS CLEAR 70 61 73 S6 29.95S  
NEW BRAUNFELS PTCLDY 68 64 87 S3 29.92R  
RANDOLPH AFB CLEAR 70 65 86 SE6 29.93R  
PT SAN ANTONIO NOT AVBL  
SAN ANTONIO PTCLDY 72 64 76 E5 29.93R  
STINSON FIELD CLEAR 73 67 81 SE5 29.91R  
*PLEASANTON CLEAR 73 67 80 E3 29.92R  
*LA GRANGE PTCLDY 71 69 94 CALM 29.91S  
*GIDDINGS MOCLDY 71 67 87 CALM 29.97R  
*GONZALES CLEAR 71 69 95 SE6 29.91S  

 
 
TXZ163>164-176>182-195>201-210>213-226-227-235-250600-  
SOUTHEAST TEXAS  
 
CITY SKY/WX TMP DP RH WIND PRES REMARKS
 
COLLEGE STN CLEAR 73 67 81 S5 29.92R  
*BRYAN CLEAR 68 65 91 CALM 29.92R  
*CALDWELL CLEAR 72 68 88 CALM 29.96R  
*CROCKETT CLEAR 68 64 88 N3 29.95S  
*BRENHAM CLEAR 70 66 88 CALM 29.93R  
HUNTSVILLE PTCLDY 70 66 87 CALM 29.92S  
CONROE PTCLDY 67 65 93 NW7 29.93R  
HOUSTON BUSH CLEAR 71 68 90 S6 29.92R  
HOUSTON HOBBY PTCLDY 70 66 87 CALM 29.92R  
*HOUSTON SW AP FOG 65 65 100 CALM 29.93S VSB<1/4  
PEARLAND CLEAR 70 66 87 CALM 29.94R  
HOUSTON HOOKS CLEAR 71 68 90 SW5 29.92R  
ELLINGTON FLD PTCLDY 72 70 94 CALM 29.94S  
SUGAR LAND CLEAR 70 67 90 CALM 29.92R  
*HOUSTON EXEC PTCLDY 68 68 100 SE6 29.93S  
*CLEVELAND MUN MOCLDY 67 66 97 CALM 29.93S FOG  
*WHARTON MOCLDY 67 66 97 CALM 29.93S FOG  

 
 
TXZ214>216-236>238-250600-  
THE UPPER TEXAS COAST  
 
CITY SKY/WX TMP DP RH WIND PRES REMARKS
 
*ORANGE CLEAR 69 68 96 CALM 29.94S  
PORT ARTHUR CLEAR 69 66 90 SW3 29.92S  
GALVESTON CLEAR 71 70 96 SE7 29.93R  
ANGLETON MOCLDY 64 64 100 CALM 29.92R FOG  
*BAY CITY CLOUDY 70 69 98 CALM 29.92S FOG  
PALACIOS MOCLDY 71 68 90 E3 29.91S  

 
 
TXZ229>234-239>247-250600-  
TEXAS COASTAL BEND AND RIO GRANDE PLAINS  
 
CITY SKY/WX TMP DP RH WIND PRES REMARKS
 
VICTORIA CLOUDY 69 68 96 E3 29.92S  
*BEEVILLE MOCLDY 69 69 100 E5 29.91S  
ROCKPORT CLOUDY 73 71 93 SE5 29.90R  
*PORT ARANSAS CLOUDY 72 72 100 SE5 29.90R  
*PORT LAVACA CLOUDY 69 68 95 CALM 29.91S  
*INGLESIDE CLOUDY 74 73 94 SE3 29.90R  
CORPUS CHRISTI CLOUDY 72 69 90 SE6 29.89S  
CORPUS NAS CLOUDY 73 72 96 SE7 29.89R  
*ROBSTOWN CLOUDY 73 70 90 E6 29.90S  
ALICE MOCLDY 70 68 93 E6 29.89R  
KINGSVILLE NAS MOCLDY 71 70 96 CALM 29.89S  
COTULLA CLEAR 76 67 73 SE8 29.91R  
*FAITH RANCH CLEAR 77 63 61 E8 29.90R  
LAREDO CLEAR 77 69 76 SE7 29.91R  

 
 
TXZ248>255-250600-  
DEEP SOUTH TEXAS  
 
CITY SKY/WX TMP DP RH WIND PRES REMARKS
 
BROWNSVILLE CLOUDY 72 71 97 S5 29.88R  
PORT ISABEL PTCLDY 75 72 90 SE7 29.87S  
*SOUTH PADRE LGT RAIN 72 72 100 MISG 29.87S  
HARLINGEN CLOUDY 74 71 91 SE10 29.87S  
*HEBBRONVILLE CLEAR 72 68 89 E3 29.91R  
MCALLEN PTCLDY 74 70 87 SE5 29.88S  
*WESLACO CLEAR 74 69 85 SE6 29.88S  
FALFURRIAS CLEAR 72 69 90 E3 29.88R  
EDINBURG CLEAR 74 69 83 SE3 29.88S  
*ZAPATA CLEAR 76 68 75 E5 29.88R  

 
 
TXZ213>215-236>238-242>244-246-247-251-254-255-250600-  
CMAN STATIONS  
 
STATION/POSITION TIME TEMP WIND PRES WAVE
 
AIR SEA DIR/SP/G HT/PER  
(UTC) (F) (DEG/KT/KT) (MB) (FT/S)  
SABINE PASS 0500 70 71 220/ 2/ 4 1013.3  
SEA RIM ST PARK 0500 71 200/ 6/ 7 1013.9  
NORTH JETTY/GLS 0500 71 74 160/ 9/ 9 N/A  
EAGLE POINT 0500 73 70 190/ 5/ 5 1012.9  
MORGANS POINT 0500 72 71 230/ 2/ 5 N/A  
MISSION/ARANSAS 0400 73 130/ 7 1013.0  
PORT O'CONNOR 0500 130/ 7/ 8 N/A  
PORT ARANSAS 0500 72 75 110/ 4/ 5 1012.6  
MALAQUITE BEACH 0500 72 74 110/ 4/ 5 1011.5  
BAFFIN BAY 0500 73 76 140/ 8/ 11 1011.8  
PORT ISABEL 0500 73 74 120/ 10/ 12 1011.6  

 
 
GMZ080-GMZ150>470-250600-  
OFFSHORE BUOY REPORTS  
 
STATION/POSITION TIME TEMP WIND PRES WAVE
 
AIR SEA DIR/SP/G HT/PER  
(UTC) (F) (DEG/KT/KT) (MB) (FT/S)  
20 E GALVESTON 0500 70 70 110/ 4/ 4 1012.9 3/ 6  
35 NE PT MANSFLD 0500 72 72 140/ 6/ 6 1011.8 4/ 6  

 
 
CLICK HERE TO GO TO PREVIOUS BULLETINS.

The Nexlab TX Page Main Text Page